Flag for Germany Weather past 2 weeks in Öhringen, Baden-Württemberg, Germany

Now
78 °F

Partly sunny.


Feels Like: 80 °F
Forecast: 62 / 79 °F
Wind: 3 mph from Northeast

Location: Oehringen

Current Time: Jul 22, 2014 at 3:26:29 PM

Latest Report: Jul 22, 2014 at 3:00 PM


Visibility: 8 mi

Pressure: 29.91 "Hg

Humidity: 66%

Dew point: 66 °F

Location of ÖhringenLocation

Historic Weather in Öhringen — Graph

°F

Öhringen temperature yesterday

Maximum temperature yesterday: 70 °F (at 5:00 PM)
Minimum temperature yesterday: 63 °F (at 3:00 AM)
Average temperature yesterday: 66 °F

Past Weeks' High & Low Weather Summary

 TemperatureHumidityPressure
High93 °F (Jul 19, 5:00 PM)99% (Jul 8, 1:00 AM)30.20 "Hg (Jul 8, 1:00 AM)
Low52 °F (Jul 9, 11:00 PM)21% (Jul 19, 5:00 PM)29.77 "Hg (Jul 8, 10:00 AM)
Average67 °F74%29.94 "Hg
* Reported Jul 7 2:00 PM — Jul 22 2:00 PM, Öhringen, Weather by CustomWeather, © 2014

Note: Actual official high and low records may vary slightly from our data, if they occured in-between our weather recording intervals... More about our weather records

Advertising

Öhringen weather history for previous 24 hours

 ConditionsComfort  
Time TempWeatherWind HumidityBarometerVisibility
2:00 PM
Jul 22
74 °FOvercast.3 mph77%29.93 "Hg5 mi
1:00 PM71 °FFog.3 mph85%29.93 "Hg4 mi
12:00 PM68 °FOvercast.3 mph92%29.93 "Hg3 mi
11:00 AM68 °FRain. Overcast.5 mph91%29.91 "Hg3 mi
10:00 AM69 °FOvercast.3 mph87%29.90 "Hg5 mi
9:00 AM69 °FOvercast.3 mph90%29.88 "Hg4 mi
8:00 AM67 °FOvercast.3 mph93%29.87 "Hg4 mi
7:00 AM66 °FOvercast.2 mph93%29.86 "Hg6 mi
6:00 AM66 °FOvercast.6 mph93%29.84 "Hg6 mi
5:00 AM66 °FRain. Overcast.3 mph95%29.82 "Hg2 mi
4:00 AM65 °FLight rain. Low clouds.3 mph98%29.83 "Hg1 mi
3:00 AM65 °FRain. Low clouds.3 mph97%29.85 "Hg1 mi
2:00 AM66 °FLight freezing rain. Low clouds.3 mph96%29.86 "Hg1 mi
1:00 AM66 °FLight rain. Low clouds.3 mph95%29.87 "Hg2 mi
12:00 AM66 °FLight rain. Low clouds.3 mph94%29.87 "Hg2 mi
11:00 PM
Jul 21
67 °FFog.5 mph94%29.88 "Hg4 mi
10:00 PM67 °FOvercast.3 mph90%29.88 "Hg6 mi
9:00 PM69 °FOvercast.2 mph86%29.87 "Hg8 mi
8:00 PM69 °FLight rain. Overcast.3 mph85%29.86 "Hg9 mi
7:00 PM69 °FOvercast.3 mph80%29.86 "Hg11 mi
6:00 PM69 °FOvercast.3 mph80%29.86 "Hg13 mi
5:00 PM70 °FOvercast.3 mph78%29.87 "Hg22 mi
4:00 PM69 °FOvercast.3 mph81%29.87 "Hg17 mi
3:00 PM67 °FOvercast.3 mph87%29.87 "Hg31 mi
Weather by CustomWeather, © 2014

See weather overviewHow to use our weather pages